Sovereign Star — WDC7330 — position and weather

sailwx.info

Track history (hours):
 
Tides and Currents Weather Stations Pressure Air Temp Water Temp Dewpoint Dewpoint Depression Visibility Wind Speed Wind Dir Waves Ship Positions

Sovereign Star

More information available from US FCC via Universal Licensing System and Coast Guard Vessel Documentation Center.

Last reported at 2014-Sep-14 07:33 UTC. Time now 2014-Sep-18 23:45 UTC.
Position N 41°20' W 071°06'.

Length 19 m.

Type: Ship. MMSI: 367069720.

Date/timePositionNaut miles runAvg speedWind from/ knotsBaromVisibWave heightAir tempDewpointWater temp
2014-Sep-14 07:33N 41°20' W 071°06'7 7.5
2014-Sep-14 06:33N 41°14' W 071°13'8 7.5
2014-Sep-14 05:33N 41°08' W 071°18'8 7.5
2014-Sep-14 04:33N 41°01' W 071°24'7 7.5
2014-Sep-14 03:33N 40°55' W 071°30'7 7.3
2014-Sep-14 02:33N 40°50' W 071°36'24 4.4
2014-Sep-13 21:12N 40°27' W 071°46'3 4.2
2014-Sep-13 20:33N 40°26' W 071°49'25 4.1
2014-Sep-13 14:23N 40°13' W 072°18'32 4.7
2014-Sep-13 07:33N 40°41' W 071°60'1 0.7
2014-Sep-13 06:32N 40°42' W 071°59'  
Track history (hours):
 
Tides and Currents Weather Stations Pressure Air Temp Water Temp Dewpoint Dewpoint Depression Visibility Wind Speed Wind Dir Waves Ship Positions

Sovereign Star

More information available from US FCC via Universal Licensing System and Coast Guard Vessel Documentation Center.

Last reported at 2014-Sep-14 07:33 UTC. Time now 2014-Sep-18 23:45 UTC.
Position N 41°20' W 071°06'.

Length 19 m.

Type: Ship. MMSI: 367069720.

Date/timePositionNaut miles runAvg speedWind from/ knotsBaromVisibWave heightAir tempDewpointWater temp
2014-Sep-14 07:33N 41°20' W 071°06'7 7.5
2014-Sep-14 06:33N 41°14' W 071°13'8 7.5
2014-Sep-14 05:33N 41°08' W 071°18'8 7.5
2014-Sep-14 04:33N 41°01' W 071°24'7 7.5
2014-Sep-14 03:33N 40°55' W 071°30'7 7.3
2014-Sep-14 02:33N 40°50' W 071°36'24 4.4
2014-Sep-13 21:12N 40°27' W 071°46'3 4.2
2014-Sep-13 20:33N 40°26' W 071°49'25 4.1
2014-Sep-13 14:23N 40°13' W 072°18'32 4.7
2014-Sep-13 07:33N 40°41' W 071°60'1 0.7
2014-Sep-13 06:32N 40°42' W 071°59'  

Dump ship's entire track history